Flag for U.S.A. Weather past 2 weeks in Tampa, Florida, U.S.A.

Now
83 °F

Passing clouds.


Feels Like: 89 °F
Forecast: 78 / 91 °F
Wind: 7 mph from Southwest

Location: Tampa International Airport

Current Time: Jun 30, 2015 at 12:28:42 AM

Latest Report: Jun 29, 2015 at 11:53 PM


Visibility: 10 mi

Pressure: 30.09 "Hg

Humidity: 72%

Dew point: 73 °F

Location of TampaLocation

Historic Weather in Tampa — Graph

°F

Tampa temperature yesterday

Maximum temperature yesterday: 89 °F (at 4:53 PM)
Minimum temperature yesterday: 78 °F (at 12:04 PM)
Average temperature yesterday: 84 °F

Past Weeks' High & Low Weather Summary

 TemperatureHumidityPressure
High95 °F (Jun 15, 4:53 PM)94% (Jun 15, 6:53 AM)30.17 "Hg (Jun 15, 6:53 AM)
Low75 °F (Jun 15, 6:53 PM)40% (Jun 15, 4:53 PM)29.99 "Hg (Jun 28, 3:53 AM)
Average84 °F70%30.09 "Hg
* Reported Jun 14 10:53 PM — Jun 29 10:53 PM, Tampa, Weather by CustomWeather, © 2015

Note: Actual official high and low records may vary slightly from our data, if they occured in-between our weather recording intervals... More about our weather records

Advertising

Tampa weather history for previous 24 hours

 ConditionsComfort  
Time TempWeatherWind HumidityBarometerVisibility
10:53 PM
Mon, Jun 29
83 °FPassing clouds.9 mph72%30.08 "Hg10 mi
9:53 PM84 °FPassing clouds.9 mph67%30.08 "Hg10 mi
8:53 PM84 °FPartly sunny.6 mph65%30.07 "Hg10 mi
7:53 PM86 °FBroken clouds.15 mph59%30.07 "Hg10 mi
6:53 PM86 °FPartly sunny.8 mph61%30.04 "Hg10 mi
5:53 PM87 °FPartly sunny.15 mph55%30.04 "Hg10 mi
4:53 PM89 °FPartly sunny.16 mph52%30.06 "Hg10 mi
3:53 PM88 °FBroken clouds.14 mph50%30.06 "Hg10 mi
2:53 PM87 °FBroken clouds.6 mph59%30.08 "Hg10 mi
1:53 PM83 °FBroken clouds.12 mph77%30.10 "Hg10 mi
12:53 PM78 °FBroken clouds.6 mph84%30.11 "Hg7 mi
12:04 PM78 °FThunderstorms. Fog.15 mph84%30.12 "Hg2 mi
11:58 AM79 °FThunderstorms. Broken clouds.13 mph79%30.10 "Hg4 mi
10:53 AM88 °FBroken clouds.13 mph61%30.09 "Hg10 mi
9:53 AM87 °FPassing clouds.10 mph61%30.08 "Hg10 mi
8:53 AM85 °FScattered clouds.12 mph68%30.07 "Hg10 mi
7:53 AM84 °FPassing clouds.8 mph70%30.05 "Hg10 mi
6:53 AM82 °FPassing clouds.8 mph72%30.03 "Hg10 mi
5:53 AM82 °FClear.9 mph72%30.03 "Hg10 mi
4:53 AM82 °FClear.9 mph72%30.02 "Hg10 mi
3:53 AM81 °FPassing clouds.9 mph74%30.01 "Hg10 mi
2:53 AM82 °FPassing clouds.7 mph74%30.03 "Hg10 mi
1:53 AM82 °FPassing clouds.7 mph74%30.03 "Hg10 mi
12:53 AM82 °FPassing clouds.5 mph72%30.05 "Hg10 mi
Weather by CustomWeather, © 2015

See weather overviewHow to use our weather pages